Regional Weather Roundup
Issued by NWS

Home | Current Version | Previous Version | Graphics & Text | Print | Product List | Glossary On
Versions: 1 2 3 4 5 6 7 8 9 10 11 12 13 14 15 16 17 18 19 20 21 22 23 24 25 26 27 28 29 30 31 32 33 34 35 36 37 38 39 40 41 42 43 44 45 46 47 48 49 50
197
ASUS43 KLSX 142057
RWRMO

WEATHER SUMMARY FOR MISSOURI
NATIONAL WEATHER SERVICE SPRINGFIELD MO
300 PM CST SUN FEB 14 2016

NOTE: "FAIR" INDICATES FEW OR NO CLOUDS BELOW 12,000 FEET WITH NO
       SIGNIFICANT WEATHER AND/OR OBSTRUCTIONS TO VISIBILITY.
       CURRENT SKY AND/OR WEATHER CONDITIONS ARE NOT AVAILABLE FOR
       CHILLICOTHE AND FARMINGTON.

MOZ001>031-035>038-043-044-053-054-142200-
...NORTHERN AND WESTERN MISSOURI...

CITY           SKY/WX    TMP DP  RH WIND       PRES   REMARKS
KANSAS CTY INT PTSUNNY   49  28  44 W12       29.84F
LEE`S SUMMIT   CLOUDY    48  28  46 SW10      29.84F
ST JOSEPH      PTSUNNY   48  28  46 W14       29.84S
CHILLICOTHE      N/A     42  25  50 S6        29.84F

$$
MOZ066>068-077>081-088>096-101>105-142200-
...SOUTHWEST MISSOURI...

CITY           SKY/WX    TMP DP  RH WIND       PRES   REMARKS
SPRINGFIELD    CLOUDY    36  28  73 S10       29.89F WCI  28
JOPLIN         SUNNY     53  37  54 SW9       29.88F

$$
MOZ032>034-039>042-045>050-055>058-069>072-142200-
...CENTRAL MISSOURI...

CITY           SKY/WX    TMP DP  RH WIND       PRES   REMARKS
COLUMBIA       NOT AVBL
JEFFERSON CITY CLOUDY    32  27  81 S7        29.93F WCI  26
ROLLA          CLOUDY    30  27  88 S8        29.90F WCI  22
SEDALIA        CLOUDY    37  30  75 S8        29.90F

$$
MOZ051-052-059>065-142200-
...EAST CENTRAL MISSOURI...

CITY           SKY/WX    TMP DP  RH WIND       PRES   REMARKS
ST LOUIS INTL  CLOUDY    27  21  78 SE9       29.99F WCI  18

$$
MOZ072>076-082>087-097>100-106>115-142200-
...SOUTH CENTRAL AND SOUTHEAST MISSOURI...

CITY           SKY/WX    TMP DP  RH WIND       PRES   REMARKS
CAPE GIRARDEAU CLOUDY    28  25  88 S9        30.02F WCI  19
POPLAR BLUFF   CLOUDY    28  25  88 SE7       30.00F WCI  21
WEST PLAINS    CLOUDY    28  24  85 S7        29.95F FOG     WCI  21

$$



USA.gov is the U.S. government's official web portal to all federal, state and local government web resources and services.